Regional Weather Roundup
Issued by NWS

Home | Current Version | Previous Version | Graphics & Text | Print | Product List | Glossary On
Versions: 1 2 3 4 5 6 7 8 9 10 11 12 13 14 15 16 17 18 19 20 21 22 23 24 25 26 27 28 29 30 31 32 33 34 35 36 37 38 39 40 41 42 43 44 45 46 47 48 49 50
000
ASUS43 KLMK 200202
RWRKY
KENTUCKY REGIONAL WEATHER ROUNDUP
NATIONAL WEATHER SERVICE LOUISVILLE KY
1000 PM EDT TUE AUG 19 2014

NOTE "FAIR" INDICATES FEW OR NO CLOUDS BELOW 12,000 FEET
WITH NO SIGNIFICANT WEATHER AND/OR OBSTRUCTIONS TO VISIBILITY.

KYZ001>023-026-027-061>063-070>075-200300-
WESTERN AND SOUTH CENTRAL KENTUCKY

CITY           SKY/WX    TMP DP  RH WIND       PRES   REMARKS
PADUCAH        MOCLDY    80  73  79 SW6       29.83R
HENDERSON      CLOUDY    79  72  78 W6        29.82R
OWENSBORO      MOCLDY    80  76  87 S5        29.84R
HOPKINSVILLE   CLEAR     80  75  84 SW9       29.87R
BOWLING GREEN  CLOUDY    83  71  67 SW7       29.86R
GLASGOW        CLOUDY    80  71  73 CALM      29.87S
$$

KYZ024-025-028>034-038-045-046-053-200300-
NORTH CENTRAL KENTUCKY

CITY           SKY/WX    TMP DP  RH WIND       PRES   REMARKS
LOUISVILLE/SDF CLOUDY    82  71  69 SE9       29.83S
LOUISVILLE/LOU CLOUDY    82  70  66 SE3       29.84S
FORT KNOX      CLOUDY    79  72  79 SE7       29.84R
$$

KYZ035>037-039>044-047>052-055>060-089>105-200300-
NORTHEAST KENTUCKY

CITY           SKY/WX    TMP DP  RH WIND       PRES   REMARKS
LEXINGTON      MOCLDY    78  70  76 SW6       29.90R
COVINGTON      CLOUDY    77  69  76 SW3       29.86R
FRANKFORT      MOCLDY    76  71  85 S3        29.87R
$$

KYZ054-064>069-076>088-106>120-200300-
SOUTHEAST KENTUCKY

CITY           SKY/WX    TMP DP  RH WIND       PRES   REMARKS
JACKSON        CLEAR     74  69  85 CALM      29.92R
LONDON         CLEAR     74  70  87 CALM      29.93R
SOMERSET       MOCLDY    73  72  94 CALM      29.92S
MIDDLESBORO    CLEAR     72  69  90 CALM      29.95R
MONTICELLO     CLEAR     71  70  97 CALM      29.93R FOG
$$




USA.gov is the U.S. government's official web portal to all federal, state and local government web resources and services.